"Pseudo-MPEC" for C5ZAJM2

Created 2021 Sep 16 13:07:07 UT using Find_Orb

Click here for an explanation of pseudo-MPECs

 
 Astrometry: 
     C5ZAJM2 HC2021 09 14.41579803 32 35.07 -15 59 07.8    ~9EB7       VNEOCPG96
     C5ZAJM2 HC2021 09 14.42333803 32 35.49 -16 04 30.5    ~9EB7 19.98GVNEOCPG96
     C5ZAJM2 HC2021 09 14.42984203 32 35.93 -16 09 08.3    ~9EB7 19.92GVNEOCPG96
     C5ZAJM2 HC2021 09 14.43517403 32 36.18 -16 12 54.5    ~9EB7 20.16GVNEOCPG96
     C5ZAJM2 KC2021 09 14.48294003 32 38.49 -16 46 03.1    ~9EC7 20.65GVNEOCP703
     C5ZAJM2 KC2021 09 14.48417503 32 38.55 -16 46 53.8    ~9EC7 19.87GVNEOCP703
     C5ZAJM2 KC2021 09 14.48541203 32 38.65 -16 47 45.5    ~9EC7 20.02GVNEOCP703
     C5ZAJM2 KC2021 09 15.43439603 35 44.81 -25 26 46.9    ~9FB7 19.80GVNEOCPG96
     C5ZAJM2 KC2021 09 15.43511303 35 44.80 -25 27 06.6    ~9FB7 20.43GVNEOCPG96
     C5ZAJM2 KC2021 09 15.43582903 35 44.79 -25 27 24.6    ~9FB7 20.54GVNEOCPG96
     C5ZAJM2 KC2021 09 16.49736603 37 55.32 -31 37 33.0    ~9GCM 21.31GVNEOCPG96
     C5ZAJM2 KC2021 09 16.49860103 37 55.28 -31 37 53.2    ~9GCM       VNEOCPG96
     C5ZAJM2 KC2021 09 16.49983803 37 55.26 -31 38 15.3    ~9GCM       VNEOCPG96

Station data:
(703) Catalina Sky Survey  (N32.417006 W110.732640)  US/Arizona.  Observers
   T. A. Pruyne, B. M. Africano, E. J. Christensen, G. A. Farneth, D. C.
   Fuls, A. R. Gibbs, A. D. Grauer, H. Gröller, J. A. Johnson, R. A.
   Kowalski, S. M. Larson, G. J. Leonard, D. Rankin, R. L. Seaman, F. C.
   Shelly. 0.68 m Schmidt + 10K CCD.
(G96) Mt. Lemmon Survey  (N32.442754 W110.788720)  US/Arizona.  Observers T.
   A. Pruyne, B. M. Africano, E. J. Christensen, G. A. Farneth, D. C. Fuls,
   A. R. Gibbs, A. D. Grauer, H. Gröller, J. A. Johnson, R. A. Kowalski, S.
   M. Larson, G. J. Leonard, D. Rankin, R. L. Seaman, F. C. Shelly. 1.5-m
   reflector + 10K CCD.

Orbital elements:  C5ZAJM2
   Perihelion 2021 Aug 21.976716 +/- 0.02056 TT = 23:26:28 (JD 2459448.476716)
Epoch 2021 Sep 16.0 TT = JDT 2459473.5   Earth MOID: 0.0053   Ma: 0.0595
M  16.13441400 +/- 0.0486083        (J2000 ecliptic)          AutoNEOCP
n   0.64477604 +/- 0.00141161       Peri.  156.22511 +/- 0.0116519
a   1.32697717 +/- 0.00193673       Node   170.36676 +/- 0.0017828
e   0.2504880 +/- 0.00111559        Incl.   17.11978 +/- 0.0458287
P   1.53/558.32d           H 26.8   G  0.15   U  8.3  
q 0.99458519 +/- 2.87391e-5    Q 1.65936915 +/- 0.0038971
From 13 observations 2021 Sept. 14-16; mean residual 0".62
Residuals in arcseconds: 
210914 G96  .04-  .43+    210914 703  .22-  1.0+    210916 G96  .17+  .34+    
210914 G96  .43-  .24-    210914 703  .37+  .10+    210916 G96  .08-  .66+    
210914 G96  .61+  1.4-    210915 G96  .23+  .21+    210916 G96  .08-  .91-    
210914 G96  .02+  1.7-    210915 G96  .00   .68-    
210914 703  .24-  1.0+    210915 G96  .23-  .10+    

Ephemerides (geocentric):
Date (UTC) HH   RA              Dec         delta   r     elong  mag " sig PA
---- -- -- --  -------------   -----------  ------ ------ -----  --- ---- ---
2021 09 16 13  03 38 03.336   -31 45 17.24  .02885 1.0184 116.3 21.4 .809   4
2021 09 16 14  03 38 07.804   -31 56 40.10  .02908 1.0185 116.3 21.4 .803   5
2021 09 16 15  03 38 12.213   -32 07 52.36  .02930 1.0185 116.2 21.4 .797   5
2021 09 16 16  03 38 16.563   -32 18 54.24  .02953 1.0186 116.2 21.5 .791   5
2021 09 16 17  03 38 20.857   -32 29 45.97  .02976 1.0187 116.1 21.5 .786   6
2021 09 16 18  03 38 25.094   -32 40 27.77  .02999 1.0188 116.1 21.5 .780   6
2021 09 16 19  03 38 29.277   -32 50 59.84  .03021 1.0188 116.1 21.5 .774   6
2021 09 16 20  03 38 33.404   -33 01 22.41  .03044 1.0189 116.0 21.5 .769   7
2021 09 16 21  03 38 37.478   -33 11 35.65  .03067 1.0190 116.0 21.5 .763   7
2021 09 16 22  03 38 41.500   -33 21 39.78  .03090 1.0191 115.9 21.6 .757   7
2021 09 16 23  03 38 45.469   -33 31 34.99  .03113 1.0192 115.9 21.6 .752   8
2021 09 17 00  03 38 49.387   -33 41 21.45  .03136 1.0192 115.9 21.6 .747   8
2021 09 17 01  03 38 53.255   -33 50 59.35  .03159 1.0193 115.8 21.6 .741   9
2021 09 17 02  03 38 57.074   -34 00 28.87  .03181 1.0194 115.8 21.6 .736   9
2021 09 17 03  03 39 00.843   -34 09 50.17  .03204 1.0195 115.8 21.6 .731   9
2021 09 17 04  03 39 04.564   -34 19 03.43  .03227 1.0195 115.7 21.7 .726  10
2021 09 17 05  03 39 08.238   -34 28 08.81  .03250 1.0196 115.7 21.7 .721  10
2021 09 17 06  03 39 11.865   -34 37 06.46  .03274 1.0197 115.7 21.7 .716  11
2021 09 17 07  03 39 15.446   -34 45 56.54  .03297 1.0198 115.6 21.7 .711  11
2021 09 17 08  03 39 18.981   -34 54 39.21  .03320 1.0198 115.6 21.7 .706  11
2021 09 17 09  03 39 22.472   -35 03 14.60  .03343 1.0199 115.6 21.7 .702  12
2021 09 17 10  03 39 25.919   -35 11 42.87  .03366 1.0200 115.5 21.8 .697  12
2021 09 17 11  03 39 29.322   -35 20 04.15  .03389 1.0201 115.5 21.8 .692  13
2021 09 17 12  03 39 32.683   -35 28 18.58  .03412 1.0202 115.5 21.8 .688  13
2021 09 17 13  03 39 36.001   -35 36 26.29  .03435 1.0202 115.4 21.8 .683  14
2021 09 17 14  03 39 39.277   -35 44 27.41  .03459 1.0203 115.4 21.8 .679  14
2021 09 17 15  03 39 42.513   -35 52 22.07  .03482 1.0204 115.4 21.8 .675  15
2021 09 17 16  03 39 45.708   -36 00 10.39  .03505 1.0205 115.3 21.8 .670  15
2021 09 17 17  03 39 48.863   -36 07 52.49  .03528 1.0206 115.3 21.9 .666  15
2021 09 17 18  03 39 51.979   -36 15 28.49  .03552 1.0206 115.3 21.9 .662  16
2021 09 17 19  03 39 55.055   -36 22 58.51  .03575 1.0207 115.3 21.9 .658  16
2021 09 17 20  03 39 58.094   -36 30 22.65  .03598 1.0208 115.2 21.9 .654  17
2021 09 17 21  03 40 01.094   -36 37 41.03  .03621 1.0209 115.2 21.9 .651  17
2021 09 17 22  03 40 04.057   -36 44 53.75  .03645 1.0209 115.2 21.9 .647  18
2021 09 17 23  03 40 06.984   -36 52 00.92  .03668 1.0210 115.1 22.0 .643  18
2021 09 18 00  03 40 09.873   -36 59 02.63  .03692 1.0211 115.1 22.0 .640  19
2021 09 18 01  03 40 12.728   -37 05 59.00  .03715 1.0212 115.1 22.0 .636  19
2021 09 18 02  03 40 15.546   -37 12 50.11  .03738 1.0213 115.1 22.0 .633  20
2021 09 18 03  03 40 18.330   -37 19 36.06  .03762 1.0213 115.0 22.0 .629  20
2021 09 18 04  03 40 21.079   -37 26 16.94  .03785 1.0214 115.0 22.0 .626  21
2021 09 18 05  03 40 23.794   -37 32 52.84  .03809 1.0215 115.0 22.0 .623  21
2021 09 18 06  03 40 26.475   -37 39 23.85  .03832 1.0216 115.0 22.0 .620  22
2021 09 18 07  03 40 29.123   -37 45 50.07  .03855 1.0217 114.9 22.1 .617  22
2021 09 18 08  03 40 31.739   -37 52 11.56  .03879 1.0217 114.9 22.1 .614  23
2021 09 18 09  03 40 34.322   -37 58 28.42  .03902 1.0218 114.9 22.1 .611  24
2021 09 18 10  03 40 36.872   -38 04 40.73  .03926 1.0219 114.9 22.1 .608  24
2021 09 18 11  03 40 39.392   -38 10 48.56  .03949 1.0220 114.8 22.1 .605  25
2021 09 18 12  03 40 41.880   -38 16 51.99  .03973 1.0221 114.8 22.1 .603  25